Location: Newark
(25.6108°S, 54.5803°W)
Time: 21:08:06
(UTC+00:00)

Courier 1B - Pass Details

Date: 04 November 2020
Orbit: 962 x 1209 km, 28.3° (Epoch: 24 November)

Event Time Altitude Azimuth Distance (km) Brightness Sun altitude
Rises 02:23:27 0° 262° (W) 3,929 10.9 -46.5°
Enters shadow 02:25:55 - 260° (W) 3,090 10.3 -46.7°
Reaches altitude 10° 02:26:10 10° 260° (W) 3,006 - -46.7°
Maximum altitude 02:33:40 75° 174° (S) 1,211 - -47.3°
Drops below altitude 10° 02:41:31 10° 88° (E) 3,139 - -47.7°
Sets 02:44:25 0° 87° (E) 4,112 - -47.9°
